Location: Aiyekoto
(8.4333°N, 4.3667°E)
Time: 11:26:01
(UTC+00:00)

Vanguard 2 - Visible Passes

Search period start: 26 September 2020 00:00
Search period end: 06 October 2020 00:00
Orbit: 554 x 2937 km, 32.9° (Epoch: 25 September)

Date Brightness Start Highest point End Pass type
(mag) Time Alt. Az. Time Alt. Az. Time Alt. Az.
26 Sep 10.8 01:52:31 15° ENE 01:52:31 15° ENE 01:53:28 10° ENE visible
26 Sep 8.8 03:53:57 40° WNW 03:55:14 42° NW 04:01:00 10° NE visible
27 Sep 10.4 02:09:38 22° ENE 02:09:38 22° ENE 02:11:34 10° ENE visible
27 Sep 9.3 04:11:04 26° WNW 04:13:04 29° NW 04:18:20 10° NNE visible
27 Sep 11.9 21:46:59 10° S 21:47:08 10° S 21:47:08 10° S visible
28 Sep 10.0 02:26:42 28° NE 02:26:42 28° NE 02:29:27 10° NE visible
28 Sep 9.7 04:28:07 17° WNW 04:31:00 20° NW 04:35:28 10° NNE visible
28 Sep 11.9 22:03:22 10° SSW 22:03:40 10° SSW 22:03:40 10° SSW visible
29 Sep 9.8 02:43:42 32° NNE 02:43:42 32° NNE 02:47:07 10° NE visible
29 Sep 10.0 04:45:21 10° WNW 04:49:06 14° NNW 04:52:12 10° N visible
29 Sep 11.9 22:20:12 10° SSW 22:20:13 10° SSW 22:20:13 10° SSW visible
30 Sep 9.7 03:00:40 32° N 03:00:40 32° N 03:04:40 10° NE visible
30 Sep 11.6 20:29:46 10° S 20:35:23 13° SSE 20:35:23 13° SSE visible
01 Oct 9.8 03:17:36 28° N 03:17:36 28° N 03:22:04 10° NNE visible
01 Oct 11.5 20:45:47 10° S 20:51:58 17° S 20:51:58 17° S visible
02 Oct 10.0 03:34:29 22° NNW 03:34:29 22° NNW 03:39:21 10° NNE visible
02 Oct 11.5 21:02:25 10° SSW 21:08:33 20° S 21:08:33 20° S visible
03 Oct 11.0 01:49:55 13° NE 01:49:55 13° NE 01:50:30 10° NE visible
03 Oct 10.2 03:51:19 17° NNW 03:51:48 17° NNW 03:56:31 10° N visible
03 Oct 11.6 19:15:08 10° SSE 19:18:50 11° SSE 19:22:36 10° SE visible
03 Oct 11.4 21:19:22 10° SSW 21:25:11 22° S 21:25:11 22° S visible
04 Oct 10.8 02:06:44 16° NNE 02:06:44 16° NNE 02:08:04 10° NE visible
04 Oct 10.4 04:08:07 12° NW 04:10:15 13° NNW 04:13:30 10° N visible
04 Oct 11.4 19:29:34 10° S 19:38:13 15° SSE 19:40:28 15° SE visible
04 Oct 11.4 21:36:34 10° SSW 21:41:51 22° SSW 21:41:51 22° SSW visible
05 Oct 10.6 02:23:31 18° NNE 02:23:31 18° NNE 02:25:35 10° NNE visible
05 Oct 10.5 04:28:39 10° NNW 04:28:55 10° NNW 04:29:11 10° NNW visible
05 Oct 11.2 19:45:44 10° S 19:57:10 21° SSE 19:57:10 21° SSE visible
05 Oct 11.5 21:54:01 10° SW 21:58:34 22° SSW 21:58:34 22° SSW visible
